Price, UT

9:23 PM MDT on May 25, 2018 (GMT -0600)
Carbon County

Weather History for KPUC - December, 2013

Change the Weather History Date:

Sunday, December 8, 2013

  Actual Average Record
Temperature  
Mean Temperature 10 °F -  
Max Temperature 21 °F 35 °F 50 °F (1973)
Min Temperature 0 °F 17 °F -5 °F (1978)
Degree Days  
Heating Degree Days 54    
Moisture  
Dew Point 0 °F    
Average Humidity 56    
Maximum Humidity 84    
Minimum Humidity 40    
Precipitation  
Precipitation 0.00 in - - ()
Sea Level Pressure  
Sea Level Pressure 30.10 in    
Wind  
Wind Speed 7 mph (NW)    
Max Wind Speed 14 mph    
Max Gust Speed 22 mph    
Visibility 10 miles    
Events      
Averages and records for this station are not official NWS values.
T = Trace of Precipitation, MM = Missing Value Source: NWS Daily Summary

Daily Weather History Graph

Daily Weather History Graph

Search for Another Location

Airport or City:

Astronomy

Dec. 08, 2013 Rise Set
Actual Time 7:31 AM MST 4:58 PM MST
Civil Twilight 7:01 AM MST 5:28 PM MST
Nautical Twilight 6:27 AM MST 6:02 PM MST
Astronomical Twilight 5:54 AM MST 6:35 PM MST
Moon 11:54 AM MST (12/8) 11:50 PM MST (12/8)
Length of Visible Light 10h 27m
Length of Day
9h 27m
Waxing Crescent, 40% of the Moon is Illuminated
Dec 8
Waxing Crescent
Dec 9
First Quarter
Dec 17
Full
Dec 25
Last Quarter
Jan 1
New

Hourly Weather History & Observations

Time (MST) Temp. Windchill Dew Point Humidity Pressure Visibility Wind Dir Wind Speed Gust Speed Precip Events Conditions
12:53 AM 14.0 °F 8.2 °F 9.0 °F 80% 29.87 in 10.0 mi ENE 3.5 mph - 0.00 in   Overcast
1:53 AM 12.0 °F - 8.1 °F 84% 29.89 in 10.0 mi Calm Calm - N/A   Clear
2:53 AM 14.0 °F 8.2 °F 6.1 °F 71% 29.91 in 10.0 mi WSW 3.5 mph - N/A   Clear
3:53 AM 12.9 °F 2.6 °F 3.9 °F 67% 29.94 in 10.0 mi WNW 6.9 mph - N/A   Clear
4:53 AM 10.9 °F -1.8 °F 1.0 °F 64% 29.98 in 10.0 mi NW 9.2 mph - N/A   Clear
5:53 AM 6.1 °F -6.8 °F -4.0 °F 63% 30.03 in 10.0 mi NNW 8.1 mph - N/A   Clear
6:53 AM -0.9 °F -14.1 °F -8.0 °F 72% 30.10 in 10.0 mi NNW 6.9 mph - N/A   Clear
7:53 AM 10.9 °F -0.8 °F -2.0 °F 56% 30.09 in 10.0 mi NNW 8.1 mph 17.3 mph N/A   Clear
8:53 AM 14.0 °F -0.2 °F -0.0 °F 54% 30.13 in 10.0 mi NNW 12.7 mph 21.9 mph N/A   Clear
9:53 AM 16.0 °F 5.3 °F -0.0 °F 49% 30.12 in 10.0 mi NNW 8.1 mph - N/A   Clear
10:53 AM 18.0 °F 5.4 °F 1.0 °F 48% 30.13 in 10.0 mi North 11.5 mph - N/A   Clear
11:53 AM 19.9 °F 9.3 °F 1.9 °F 46% 30.11 in 10.0 mi NW 9.2 mph - N/A   Clear
12:53 PM 19.0 °F 7.5 °F 3.0 °F 50% 30.11 in 10.0 mi South 10.4 mph - N/A   Clear
1:53 PM 19.0 °F 9.0 °F 1.9 °F 47% 30.12 in 10.0 mi SSW 8.1 mph - N/A   Clear
2:53 PM 21.0 °F 9.9 °F -0.0 °F 40% 30.10 in 10.0 mi WNW 10.4 mph - N/A   Clear
3:53 PM 18.0 °F 5.4 °F -0.9 °F 44% 30.13 in 10.0 mi NW 11.5 mph - N/A   Clear
4:53 PM 15.1 °F 6.4 °F -2.9 °F 45% 30.17 in 10.0 mi WNW 5.8 mph - N/A   Clear
5:53 PM 12.9 °F 1.6 °F -4.0 °F 47% 30.19 in 10.0 mi NW 8.1 mph - N/A   Clear
6:53 PM 8.1 °F -3.2 °F -4.0 °F 58% 30.25 in 10.0 mi NNE 6.9 mph - N/A   Partly Cloudy
7:53 PM 10.9 °F 0.2 °F -2.0 °F 56% 30.20 in 10.0 mi NNW 6.9 mph - N/A   Clear
8:53 PM 14.0 °F -0.8 °F -2.9 °F 47% 30.19 in 10.0 mi NW 13.8 mph - N/A   Partly Cloudy
9:53 PM 12.9 °F -0.9 °F -2.0 °F 51% 30.20 in 10.0 mi NNW 11.5 mph - N/A   Scattered Clouds
10:53 PM 12.0 °F 0.5 °F -2.9 °F 51% 30.24 in 10.0 mi NW 8.1 mph - N/A   Clear
11:53 PM 10.0 °F -4.5 °F -4.0 °F 53% 30.24 in 10.0 mi NW 11.5 mph - N/A   Clear